Flag for Russia Weather past 2 weeks in Yuzhno-Sakhalinsk, Russia

Now
37 °F

Clear.


Feels Like: 33 °F
Forecast: 40 / 54 °F
Wind: 6 mph from Southeast

Location: Yuzhno Airport-Sakhalinsk

Current Time: Oct 24, 2014 at 1:53:31 AM

Latest Report: Oct 24, 2014 at 1:00 AM


Visibility: N/A

Pressure: 29.95 "Hg

Humidity: 93%

Dew point: 36 °F

Location of Yuzhno-SakhalinskLocation

Historic Weather in Yuzhno-Sakhalinsk — Graph

°F

Yuzhno-Sakhalinsk temperature yesterday

Maximum temperature yesterday: 52 °F (at 2:30 PM)
Minimum temperature yesterday: 18 °F (at 6:00 AM)
Average temperature yesterday: 36 °F

Past Weeks' High & Low Weather Summary

 TemperatureHumidityPressure
High64 °F (Oct 19, 1:30 PM)100% (Oct 9, 12:00 AM)30.39 "Hg (Oct 9, 12:00 AM)
Low14 °F (Oct 22, 5:00 AM)30% (Oct 23, 2:30 PM)29.68 "Hg (Oct 10, 11:00 AM)
Average43 °F76%29.99 "Hg
* Reported Midnight between Oct 8 and Oct 9 — Midnight between Oct 23 and Oct 24, Yuzhno-Sakhalinsk, Weather by CustomWeather, © 2014

Note: Actual official high and low records may vary slightly from our data, if they occured in-between our weather recording intervals... More about our weather records

Advertising

Yuzhno-Sakhalinsk weather history for previous 24 hours

 ConditionsComfort  
Time TempWeatherWind HumidityBarometerVisibility
12:00 AM
Oct 24
30 °FClear.6 mph93%29.98 "HgN/A
11:00 PM
Oct 23
32 °FClear.6 mph93%29.98 "HgN/A
10:00 PM32 °FClear.6 mph93%29.98 "HgN/A
9:30 PM32 °FClear.6 mph87%29.98 "HgN/A
9:00 PM36 °FClear.6 mph81%29.98 "HgN/A
8:30 PM36 °FClear.3 mph75%29.98 "HgN/A
8:00 PM39 °FClear.3 mph70%29.98 "HgN/A
7:30 PM41 °FClear.6 mph66%29.98 "HgN/A
7:00 PM43 °FSunny.6 mph57%29.98 "HgN/A
6:30 PM45 °FSunny.10 mph53%29.98 "HgN/A
6:00 PM48 °FSunny.8 mph46%29.95 "HgN/A
5:30 PM50 °FSunny.8 mph40%29.95 "HgN/A
5:00 PM50 °FSunny.15 mph35%29.95 "HgN/A
4:30 PM52 °FSunny.15 mph32%29.95 "HgN/A
4:00 PM52 °FClear.15 mph30%29.95 "HgN/A
3:30 PM52 °FClear.15 mph32%29.98 "HgN/A
3:00 PM52 °FClear.10 mph32%29.98 "HgN/A
2:30 PM52 °FClear.13 mph30%29.98 "HgN/A
1:30 PM50 °FClear.13 mph37%30.01 "HgN/A
1:00 PM48 °FClear.15 mph40%30.04 "HgN/A
12:30 PM46 °FClear.15 mph46%30.04 "HgN/A
12:00 PM46 °FClear.13 mph46%30.04 "HgN/A
11:30 AM45 °FClear.6 mph49%30.04 "HgN/A
11:00 AM41 °FClear.6 mph70%30.07 "HgN/A
10:30 AM36 °FClear.1 mph75%30.07 "HgN/A
10:00 AM34 °FClear.No wind81%30.07 "HgN/A
9:30 AM30 °FClear.No wind86%30.07 "HgN/A
9:00 AM25 °FClear.No wind93%30.04 "HgN/A
8:30 AM21 °FClear.No wind93%30.04 "HgN/A
7:30 AM18 °FClear.1 mph100%30.04 "HgN/A
7:00 AM18 °FClear.3 mph93%30.04 "HgN/A
6:30 AM18 °FClear.3 mph93%30.04 "HgN/A
6:00 AM18 °FClear.No wind93%30.04 "HgN/A
5:00 AM21 °FClear.No wind86%30.01 "HgN/A
4:00 AM19 °FClear.3 mph93%30.01 "HgN/A
3:00 AM21 °FClear.3 mph93%30.01 "HgN/A
2:00 AM23 °FClear.No wind86%30.01 "HgN/A
1:00 AM28 °FClear.3 mph74%30.01 "HgN/A
Weather by CustomWeather, © 2014

See weather overviewHow to use our weather pages